Time,TemperatureF,DewpointF,PressureIn,WindDirection,WindDirectionDegrees,WindSpeedMPH,WindSpeedGustMPH,Humidity,HourlyPrecipIn,Conditions,Clouds,dailyrainin,SoftwareType,DateUTC
2013-03-16 00:00:00,65.9,47.8,29.86,South,188,13.0,28.0,52,0.00,,,0.00,Wunderground v.1.15,2013-03-16 05:00:00,
2013-03-16 00:10:00,66.0,48.4,29.86,SSW,209,13.0,13.0,53,0.00,,,0.00,Wunderground v.1.15,2013-03-16 05:10:00,
2013-03-16 00:15:00,65.9,48.3,29.86,SSE,159,13.0,17.0,53,0.00,,,0.00,Wunderground v.1.15,2013-03-16 05:15:00,
2013-03-16 00:20:00,65.9,48.8,29.85,SSW,192,13.0,14.0,54,0.00,,,0.00,Wunderground v.1.15,2013-03-16 05:20:00,
2013-03-16 00:25:00,65.8,48.7,29.85,South,178,14.0,20.0,54,0.00,,,0.00,Wunderground v.1.15,2013-03-16 05:25:00,
2013-03-16 00:35:00,65.7,49.1,29.85,SW,226,13.0,19.0,55,0.00,,,0.00,Wunderground v.1.15,2013-03-16 05:35:00,
2013-03-16 00:40:00,65.7,49.1,29.85,South,179,13.0,13.0,55,0.00,,,0.00,Wunderground v.1.15,2013-03-16 05:40:00,
2013-03-16 00:45:00,65.6,49.0,29.85,SSW,200,13.0,17.0,55,0.00,,,0.00,Wunderground v.1.15,2013-03-16 05:45:00,
2013-03-16 00:50:00,65.6,49.0,29.85,SSW,194,12.0,12.0,55,0.00,,,0.00,Wunderground v.1.15,2013-03-16 05:50:00,
2013-03-16 01:00:00,65.6,49.0,29.85,SW,229,12.0,16.0,55,0.00,,,0.00,Wunderground v.1.15,2013-03-16 06:00:00,
2013-03-16 01:10:00,65.4,48.8,29.84,SSW,208,13.0,13.0,55,0.00,,,0.00,Wunderground v.1.15,2013-03-16 06:10:00,
2013-03-16 01:15:00,65.4,48.8,29.84,South,177,13.0,13.0,55,0.00,,,0.00,Wunderground v.1.15,2013-03-16 06:15:00,
2013-03-16 01:20:00,65.3,48.7,29.84,South,186,13.0,13.0,55,0.00,,,0.00,Wunderground v.1.15,2013-03-16 06:20:00,
2013-03-16 01:25:00,65.1,48.5,29.84,SSW,192,12.0,13.0,55,0.00,,,0.00,Wunderground v.1.15,2013-03-16 06:25:00,
2013-03-16 01:35:00,64.9,48.3,29.84,SSW,203,13.0,14.0,55,0.00,,,0.00,Wunderground v.1.15,2013-03-16 06:35:00,
2013-03-16 01:40:00,64.7,48.2,29.84,SW,215,11.0,11.0,55,0.00,,,0.00,Wunderground v.1.15,2013-03-16 06:40:00,
2013-03-16 01:45:00,64.6,48.1,29.84,SSW,197,12.0,12.0,55,0.00,,,0.00,Wunderground v.1.15,2013-03-16 06:45:00,
2013-03-16 01:50:00,64.4,47.9,29.84,SSW,211,12.0,12.0,55,0.00,,,0.00,Wunderground v.1.15,2013-03-16 06:50:00,
2013-03-16 02:00:00,64.1,48.1,29.84,South,182,11.0,11.0,56,0.00,,,0.00,Wunderground v.1.15,2013-03-16 07:00:00,
2013-03-16 02:10:00,63.7,48.2,29.84,SE,145,10.0,12.0,57,0.00,,,0.00,Wunderground v.1.15,2013-03-16 07:10:00,
2013-03-16 02:20:00,63.3,48.3,29.84,South,184,10.0,10.0,58,0.00,,,0.00,Wunderground v.1.15,2013-03-16 07:20:00,
2013-03-16 02:25:00,63.1,48.5,29.84,SSW,201,10.0,22.0,59,0.00,,,0.00,Wunderground v.1.15,2013-03-16 07:25:00,
2013-03-16 02:30:00,63.0,48.4,29.84,South,183,10.0,10.0,59,0.00,,,0.00,Wunderground v.1.15,2013-03-16 07:30:00,
2013-03-16 02:35:00,62.9,48.8,29.83,South,177,10.0,21.0,60,0.00,,,0.00,Wunderground v.1.15,2013-03-16 07:35:00,
2013-03-16 02:40:00,62.7,49.1,29.84,South,186,9.0,9.0,61,0.00,,,0.00,Wunderground v.1.15,2013-03-16 07:40:00,
2013-03-16 02:50:00,62.3,49.1,29.83,SSW,201,9.0,17.0,62,0.00,,,0.00,Wunderground v.1.15,2013-03-16 07:50:00,
2013-03-16 02:55:00,62.2,49.0,29.83,SSW,210,10.0,17.0,62,0.00,,,0.00,Wunderground v.1.15,2013-03-16 07:55:00,
2013-03-16 03:00:00,62.1,49.4,29.83,SSE,159,10.0,12.0,63,0.00,,,0.00,Wunderground v.1.15,2013-03-16 08:00:00,
2013-03-16 03:10:00,61.8,49.5,29.83,SSW,194,9.0,9.0,64,0.00,,,0.00,Wunderground v.1.15,2013-03-16 08:10:00,
2013-03-16 03:15:00,61.6,49.3,29.83,SSE,163,9.0,9.0,64,0.00,,,0.00,Wunderground v.1.15,2013-03-16 08:15:00,
2013-03-16 03:20:00,61.4,49.5,29.83,SSW,199,8.0,8.0,65,0.00,,,0.00,Wunderground v.1.15,2013-03-16 08:20:00,
2013-03-16 03:30:00,61.1,49.7,29.83,South,187,9.0,9.0,66,0.00,,,0.00,Wunderground v.1.15,2013-03-16 08:30:00,
2013-03-16 03:35:00,60.9,49.9,29.83,South,174,9.0,12.0,67,0.00,,,0.00,Wunderground v.1.15,2013-03-16 08:35:00,
2013-03-16 03:40:00,60.7,49.7,29.83,South,185,9.0,9.0,67,0.00,,,0.00,Wunderground v.1.15,2013-03-16 08:40:00,
2013-03-16 03:45:00,60.5,49.9,29.83,SSW,198,9.0,10.0,68,0.00,,,0.00,Wunderground v.1.15,2013-03-16 08:45:00,
2013-03-16 03:50:00,60.3,50.1,29.83,South,182,9.0,9.0,69,0.00,,,0.00,Wunderground v.1.15,2013-03-16 08:50:00,
2013-03-16 04:00:00,59.9,50.1,29.82,SSW,196,10.0,10.0,70,0.00,,,0.00,Wunderground v.1.15,2013-03-16 09:00:00,
2013-03-16 04:10:00,59.7,50.3,29.82,South,182,10.0,10.0,71,0.00,,,0.00,Wunderground v.1.15,2013-03-16 09:10:00,
2013-03-16 04:15:00,59.5,50.5,29.82,South,183,10.0,10.0,72,0.00,,,0.00,Wunderground v.1.15,2013-03-16 09:15:00,
2013-03-16 04:20:00,59.4,50.4,29.82,South,181,9.0,9.0,72,0.00,,,0.00,Wunderground v.1.15,2013-03-16 09:20:00,
2013-03-16 04:25:00,59.3,50.6,29.82,SSW,199,9.0,14.0,73,0.00,,,0.00,Wunderground v.1.15,2013-03-16 09:25:00,
2013-03-16 04:30:00,59.2,50.5,29.81,SSW,207,9.0,11.0,73,0.00,,,0.00,Wunderground v.1.15,2013-03-16 09:30:00,
2013-03-16 04:40:00,59.1,50.8,29.81,SSW,194,10.0,10.0,74,0.00,,,0.00,Wunderground v.1.15,2013-03-16 09:40:00,
2013-03-16 04:45:00,59.0,50.7,29.81,South,178,9.0,10.0,74,0.00,,,0.00,Wunderground v.1.15,2013-03-16 09:45:00,
2013-03-16 04:50:00,58.8,50.5,29.82,South,176,8.0,8.0,74,0.00,,,0.00,Wunderground v.1.15,2013-03-16 09:50:00,
2013-03-16 05:00:00,58.5,51.0,29.81,SSW,192,8.0,8.0,76,0.00,,,0.00,Wunderground v.1.15,2013-03-16 10:00:00,
2013-03-16 05:10:00,58.3,51.1,29.81,South,169,8.0,12.0,77,0.00,,,0.00,Wunderground v.1.15,2013-03-16 10:10:00,
2013-03-16 05:15:00,58.2,51.0,29.81,South,175,8.0,12.0,77,0.00,,,0.00,Wunderground v.1.15,2013-03-16 10:15:00,
2013-03-16 05:20:00,58.1,51.3,29.81,South,173,9.0,9.0,78,0.00,,,0.00,Wunderground v.1.15,2013-03-16 10:20:00,
2013-03-16 05:25:00,58.0,51.2,29.81,South,186,9.0,11.0,78,0.00,,,0.00,Wunderground v.1.15,2013-03-16 10:25:00,
2013-03-16 05:30:00,58.0,51.5,29.81,South,186,9.0,10.0,79,0.00,,,0.00,Wunderground v.1.15,2013-03-16 10:30:00,
2013-03-16 05:40:00,57.9,51.8,29.81,South,180,10.0,10.0,80,0.00,,,0.00,Wunderground v.1.15,2013-03-16 10:40:00,
2013-03-16 05:45:00,57.8,51.7,29.81,South,183,10.0,10.0,80,0.00,,,0.00,Wunderground v.1.15,2013-03-16 10:45:00,
2013-03-16 05:50:00,57.7,51.6,29.81,South,169,9.0,12.0,80,0.00,,,0.00,Wunderground v.1.15,2013-03-16 10:50:00,
2013-03-16 05:55:00,57.6,51.8,29.81,SW,224,9.0,12.0,81,0.00,,,0.00,Wunderground v.1.15,2013-03-16 10:55:00,
2013-03-16 06:00:00,57.6,51.8,29.81,SSW,206,9.0,11.0,81,0.00,,,0.00,Wunderground v.1.15,2013-03-16 11:00:00,
2013-03-16 06:10:00,57.5,52.0,29.81,South,173,10.0,10.0,82,0.00,,,0.00,Wunderground v.1.15,2013-03-16 11:10:00,
2013-03-16 06:15:00,57.5,52.0,29.81,South,175,8.0,12.0,82,0.00,,,0.00,Wunderground v.1.15,2013-03-16 11:15:00,
2013-03-16 06:25:00,57.4,52.3,29.81,SSE,162,10.0,10.0,83,0.00,,,0.00,Wunderground v.1.15,2013-03-16 11:25:00,
2013-03-16 06:30:00,57.4,52.3,29.81,South,188,10.0,11.0,83,0.00,,,0.00,Wunderground v.1.15,2013-03-16 11:30:00,
2013-03-16 06:35:00,57.3,52.2,29.81,South,190,9.0,11.0,83,0.00,,,0.00,Wunderground v.1.15,2013-03-16 11:35:00,
2013-03-16 06:40:00,57.2,52.1,29.81,SSW,193,7.0,7.0,83,0.00,,,0.00,Wunderground v.1.15,2013-03-16 11:40:00,
2013-03-16 06:50:00,57.0,52.2,29.81,South,169,8.0,9.0,84,0.00,,,0.00,Wunderground v.1.15,2013-03-16 11:50:00,
2013-03-16 06:55:00,56.9,52.1,29.81,SSW,197,8.0,9.0,84,0.00,,,0.00,Wunderground v.1.15,2013-03-16 11:55:00,
2013-03-16 07:00:00,56.9,52.4,29.80,SSW,193,9.0,11.0,85,0.00,,,0.00,Wunderground v.1.15,2013-03-16 12:00:00,
2013-03-16 07:10:00,56.8,52.3,29.80,South,184,9.0,10.0,85,0.00,,,0.00,Wunderground v.1.15,2013-03-16 12:10:00,
2013-03-16 07:15:00,56.8,52.3,29.81,SSW,194,9.0,13.0,85,0.00,,,0.00,Wunderground v.1.15,2013-03-16 12:15:00,
2013-03-16 07:25:00,56.7,52.6,29.81,South,179,9.0,9.0,86,0.00,,,0.00,Wunderground v.1.15,2013-03-16 12:25:00,
2013-03-16 07:30:00,56.7,52.6,29.80,South,189,10.0,10.0,86,0.00,,,0.00,Wunderground v.1.15,2013-03-16 12:30:00,
2013-03-16 07:35:00,56.7,52.6,29.81,South,182,10.0,18.0,86,0.00,,,0.00,Wunderground v.1.15,2013-03-16 12:35:00,
2013-03-16 07:40:00,56.7,52.6,29.81,South,175,10.0,10.0,86,0.00,,,0.00,Wunderground v.1.15,2013-03-16 12:40:00,
2013-03-16 07:45:00,56.7,52.6,29.81,South,188,10.0,19.0,86,0.00,,,0.00,Wunderground v.1.15,2013-03-16 12:45:00,
2013-03-16 07:55:00,56.6,52.5,29.81,South,181,9.0,9.0,86,0.00,,,0.00,Wunderground v.1.15,2013-03-16 12:55:00,
2013-03-16 08:00:00,56.7,52.6,29.81,South,179,8.0,8.0,86,0.00,,,0.00,Wunderground v.1.15,2013-03-16 13:00:00,
2013-03-16 08:10:00,56.6,52.5,29.81,South,178,7.0,8.0,86,0.00,,,0.00,Wunderground v.1.15,2013-03-16 13:10:00,
2013-03-16 08:15:00,56.7,52.6,29.81,SSW,198,7.0,10.0,86,0.00,,,0.00,Wunderground v.1.15,2013-03-16 13:15:00,
2013-03-16 08:20:00,56.8,52.7,29.81,SSW,200,9.0,9.0,86,0.00,,,0.00,Wunderground v.1.15,2013-03-16 13:20:00,
2013-03-16 08:25:00,57.0,52.5,29.81,SSW,192,9.0,9.0,85,0.00,,,0.00,Wunderground v.1.15,2013-03-16 13:25:00,
2013-03-16 08:30:00,57.1,52.6,29.81,SSW,192,9.0,9.0,85,0.00,,,0.00,Wunderground v.1.15,2013-03-16 13:30:00,
2013-03-16 08:40:00,57.5,53.0,29.81,South,180,9.0,9.0,85,0.00,,,0.00,Wunderground v.1.15,2013-03-16 13:40:00,
2013-03-16 08:45:00,57.7,53.2,29.81,South,188,8.0,12.0,85,0.00,,,0.00,Wunderground v.1.15,2013-03-16 13:45:00,
2013-03-16 08:50:00,58.0,53.2,29.81,South,177,8.0,8.0,84,0.00,,,0.00,Wunderground v.1.15,2013-03-16 13:50:00,
2013-03-16 08:55:00,58.3,53.5,29.81,SSW,202,8.0,8.0,84,0.00,,,0.00,Wunderground v.1.15,2013-03-16 13:55:00,
2013-03-16 09:00:00,58.6,53.5,29.81,South,190,9.0,9.0,83,0.00,,,0.00,Wunderground v.1.15,2013-03-16 14:00:00,
2013-03-16 09:10:00,59.5,54.0,29.81,SSE,153,10.0,10.0,82,0.00,,,0.00,Wunderground v.1.15,2013-03-16 14:10:00,
2013-03-16 09:20:00,60.6,54.4,29.82,SSE,161,11.0,11.0,80,0.00,,,0.00,Wunderground v.1.15,2013-03-16 14:20:00,
2013-03-16 09:25:00,61.2,54.3,29.82,SSW,197,11.0,11.0,78,0.00,,,0.00,Wunderground v.1.15,2013-03-16 14:25:00,
2013-03-16 09:30:00,61.7,54.8,29.82,SSW,200,11.0,11.0,78,0.00,,,0.00,Wunderground v.1.15,2013-03-16 14:30:00,
2013-03-16 09:35:00,62.4,54.7,29.82,SSE,151,11.0,11.0,76,0.00,,,0.00,Wunderground v.1.15,2013-03-16 14:35:00,
2013-03-16 09:40:00,62.8,54.8,29.82,SSW,206,10.0,14.0,75,0.00,,,0.00,Wunderground v.1.15,2013-03-16 14:40:00,
2013-03-16 09:50:00,63.6,54.8,29.81,South,188,11.0,12.0,73,0.00,,,0.00,Wunderground v.1.15,2013-03-16 14:50:00,
2013-03-16 09:55:00,64.1,55.3,29.81,SSW,203,11.0,12.0,73,0.00,,,0.00,Wunderground v.1.15,2013-03-16 14:55:00,
2013-03-16 10:00:00,64.7,55.1,29.82,SSW,204,11.0,16.0,71,0.00,,,0.00,Wunderground v.1.15,2013-03-16 15:00:00,
2013-03-16 10:10:00,65.6,55.9,29.81,SSW,205,12.0,12.0,71,0.00,,,0.00,Wunderground v.1.15,2013-03-16 15:10:00,
2013-03-16 10:15:00,66.0,55.5,29.81,South,176,11.0,16.0,69,0.00,,,0.00,Wunderground v.1.15,2013-03-16 15:15:00,
2013-03-16 10:20:00,66.6,55.7,29.81,SSW,202,11.0,18.0,68,0.00,,,0.00,Wunderground v.1.15,2013-03-16 15:20:00,
2013-03-16 10:25:00,66.8,55.5,29.81,SW,218,13.0,18.0,67,0.00,,,0.00,Wunderground v.1.15,2013-03-16 15:25:00,
2013-03-16 10:30:00,67.3,56.0,29.81,SSW,193,13.0,13.0,67,0.00,,,0.00,Wunderground v.1.15,2013-03-16 15:30:00,
2013-03-16 10:40:00,68.5,56.3,29.81,SSW,196,11.0,11.0,65,0.00,,,0.00,Wunderground v.1.15,2013-03-16 15:40:00,
2013-03-16 10:45:00,68.6,56.4,29.81,South,187,12.0,12.0,65,0.00,,,0.00,Wunderground v.1.15,2013-03-16 15:45:00,
2013-03-16 10:50:00,69.3,56.6,29.81,South,185,12.0,12.0,64,0.00,,,0.00,Wunderground v.1.15,2013-03-16 15:50:00,
2013-03-16 10:55:00,69.7,56.1,29.81,SSW,194,12.0,17.0,62,0.00,,,0.00,Wunderground v.1.15,2013-03-16 15:55:00,
2013-03-16 11:00:00,69.3,56.2,29.81,SSE,148,13.0,17.0,63,0.00,,,0.00,Wunderground v.1.15,2013-03-16 16:00:00,
2013-03-16 11:10:00,70.7,57.0,29.81,WSW,240,11.0,14.0,62,0.00,,,0.00,Wunderground v.1.15,2013-03-16 16:10:00,
2013-03-16 11:20:00,71.0,56.4,29.81,SSW,192,11.0,18.0,60,0.00,,,0.00,Wunderground v.1.15,2013-03-16 16:20:00,
2013-03-16 11:25:00,71.4,56.3,29.81,South,180,11.0,20.0,59,0.00,,,0.00,Wunderground v.1.15,2013-03-16 16:25:00,
2013-03-16 11:30:00,71.8,56.7,29.80,SSW,200,13.0,13.0,59,0.00,,,0.00,Wunderground v.1.15,2013-03-16 16:30:00,
2013-03-16 11:35:00,72.1,56.5,29.80,SSW,208,14.0,14.0,58,0.00,,,0.00,Wunderground v.1.15,2013-03-16 16:35:00,
2013-03-16 11:45:00,72.5,56.4,29.79,South,178,12.0,13.0,57,0.00,,,0.00,Wunderground v.1.15,2013-03-16 16:45:00,
2013-03-16 11:50:00,72.4,56.3,29.79,SSE,167,13.0,22.0,57,0.00,,,0.00,Wunderground v.1.15,2013-03-16 16:50:00,
2013-03-16 11:55:00,72.6,56.5,29.79,SSW,204,14.0,22.0,57,0.00,,,0.00,Wunderground v.1.15,2013-03-16 16:55:00,
2013-03-16 12:00:00,73.0,56.9,29.78,SSW,192,14.0,14.0,57,0.00,,,0.00,Wunderground v.1.15,2013-03-16 17:00:00,
2013-03-16 12:10:00,74.0,56.8,29.78,South,173,12.0,19.0,55,0.00,,,0.00,Wunderground v.1.15,2013-03-16 17:10:00,
2013-03-16 12:15:00,74.1,56.9,29.78,South,188,13.0,19.0,55,0.00,,,0.00,Wunderground v.1.15,2013-03-16 17:15:00,
2013-03-16 12:20:00,74.4,56.7,29.78,SSE,161,13.0,13.0,54,0.00,,,0.00,Wunderground v.1.15,2013-03-16 17:20:00,
2013-03-16 12:30:00,75.2,56.9,29.77,South,188,14.0,14.0,53,0.00,,,0.00,Wunderground v.1.15,2013-03-16 17:30:00,
2013-03-16 12:35:00,75.5,57.7,29.78,South,189,13.0,14.0,54,0.00,,,0.00,Wunderground v.1.15,2013-03-16 17:35:00,
2013-03-16 12:40:00,75.7,57.9,29.77,South,190,13.0,13.0,54,0.00,,,0.00,Wunderground v.1.15,2013-03-16 17:40:00,
2013-03-16 12:45:00,76.2,57.8,29.77,South,173,12.0,13.0,53,0.00,,,0.00,Wunderground v.1.15,2013-03-16 17:45:00,
2013-03-16 12:55:00,76.9,58.5,29.77,South,169,13.0,18.0,53,0.00,,,0.00,Wunderground v.1.15,2013-03-16 17:55:00,
2013-03-16 13:00:00,77.1,58.1,29.76,SSE,161,12.0,12.0,52,0.00,,,0.00,Wunderground v.1.15,2013-03-16 18:00:00,
2013-03-16 13:10:00,77.4,58.4,29.76,SSE,164,13.0,13.0,52,0.00,,,0.00,Wunderground v.1.15,2013-03-16 18:10:00,
2013-03-16 13:15:00,77.8,58.2,29.76,SSW,194,13.0,17.0,51,0.00,,,0.00,Wunderground v.1.15,2013-03-16 18:15:00,
2013-03-16 13:20:00,78.3,58.7,29.75,South,172,13.0,13.0,51,0.00,,,0.00,Wunderground v.1.15,2013-03-16 18:20:00,
2013-03-16 13:25:00,78.5,58.3,29.75,SSW,192,13.0,13.0,50,0.00,,,0.00,Wunderground v.1.15,2013-03-16 18:25:00,
2013-03-16 13:35:00,79.1,58.9,29.75,SSW,194,13.0,21.0,50,0.00,,,0.00,Wunderground v.1.15,2013-03-16 18:35:00,
2013-03-16 13:40:00,79.1,58.9,29.75,SSW,210,13.0,13.0,50,0.00,,,0.00,Wunderground v.1.15,2013-03-16 18:40:00,
2013-03-16 13:45:00,79.1,58.9,29.74,SSE,159,12.0,14.0,50,0.00,,,0.00,Wunderground v.1.15,2013-03-16 18:45:00,
2013-03-16 13:50:00,78.9,58.1,29.74,SSE,166,14.0,14.0,49,0.00,,,0.00,Wunderground v.1.15,2013-03-16 18:50:00,
2013-03-16 13:55:00,78.9,58.7,29.74,SSE,161,15.0,15.0,50,0.00,,,0.00,Wunderground v.1.15,2013-03-16 18:55:00,
2013-03-16 14:00:00,79.1,58.9,29.74,SSE,150,14.0,14.0,50,0.00,,,0.00,Wunderground v.1.15,2013-03-16 19:00:00,
2013-03-16 14:10:00,79.6,58.8,29.73,SW,221,14.0,14.0,49,0.00,,,0.00,Wunderground v.1.15,2013-03-16 19:10:00,
2013-03-16 14:15:00,80.2,58.7,29.73,SE,139,13.0,14.0,48,0.00,,,0.00,Wunderground v.1.15,2013-03-16 19:15:00,
2013-03-16 14:25:00,80.6,59.1,29.72,SW,223,14.0,20.0,48,0.00,,,0.00,Wunderground v.1.15,2013-03-16 19:25:00,
2013-03-16 14:30:00,81.1,59.6,29.71,SSE,159,12.0,12.0,48,0.00,,,0.00,Wunderground v.1.15,2013-03-16 19:30:00,
2013-03-16 14:35:00,81.0,59.5,29.71,SSE,163,12.0,15.0,48,0.00,,,0.00,Wunderground v.1.15,2013-03-16 19:35:00,
2013-03-16 14:45:00,81.1,59.0,29.71,South,186,14.0,14.0,47,0.00,,,0.00,Wunderground v.1.15,2013-03-16 19:45:00,
2013-03-16 14:50:00,81.3,59.7,29.70,SSE,157,13.0,13.0,48,0.00,,,0.00,Wunderground v.1.15,2013-03-16 19:50:00,
2013-03-16 14:55:00,82.3,59.4,29.70,South,187,11.0,13.0,46,0.00,,,0.00,Wunderground v.1.15,2013-03-16 19:55:00,
2013-03-16 15:00:00,81.6,59.4,29.70,SSE,160,13.0,18.0,47,0.00,,,0.00,Wunderground v.1.15,2013-03-16 20:00:00,
2013-03-16 15:10:00,81.4,59.2,29.69,South,184,13.0,13.0,47,0.00,,,0.00,Wunderground v.1.15,2013-03-16 20:10:00,
2013-03-16 15:15:00,81.9,59.7,29.69,SSW,193,13.0,13.0,47,0.00,,,0.00,Wunderground v.1.15,2013-03-16 20:15:00,
2013-03-16 15:25:00,81.7,58.9,29.69,SE,146,14.0,14.0,46,0.00,,,0.00,Wunderground v.1.15,2013-03-16 20:25:00,
2013-03-16 15:30:00,81.4,58.6,29.69,SSE,161,14.0,14.0,46,0.00,,,0.00,Wunderground v.1.15,2013-03-16 20:30:00,
2013-03-16 15:35:00,81.5,58.7,29.68,SSW,196,14.0,19.0,46,0.00,,,0.00,Wunderground v.1.15,2013-03-16 20:35:00,
2013-03-16 15:40:00,81.8,59.0,29.68,South,184,14.0,14.0,46,0.00,,,0.00,Wunderground v.1.15,2013-03-16 20:40:00,
2013-03-16 15:50:00,81.6,58.8,29.67,South,171,14.0,22.0,46,0.00,,,0.00,Wunderground v.1.15,2013-03-16 20:50:00,
2013-03-16 15:55:00,81.9,58.5,29.67,SSE,163,13.0,22.0,45,0.00,,,0.00,Wunderground v.1.15,2013-03-16 20:55:00,
2013-03-16 16:00:00,81.6,58.8,29.67,South,178,14.0,14.0,46,0.00,,,0.00,Wunderground v.1.15,2013-03-16 21:00:00,
2013-03-16 16:10:00,82.6,59.7,29.67,SSW,192,12.0,12.0,46,0.00,,,0.00,Wunderground v.1.15,2013-03-16 21:10:00,
2013-03-16 16:15:00,82.7,58.6,29.67,South,189,13.0,17.0,44,0.00,,,0.00,Wunderground v.1.15,2013-03-16 21:15:00,
2013-03-16 16:20:00,82.4,58.9,29.67,South,173,13.0,13.0,45,0.00,,,0.00,Wunderground v.1.15,2013-03-16 21:20:00,
2013-03-16 16:25:00,82.1,58.7,29.67,South,182,14.0,14.0,45,0.00,,,0.00,Wunderground v.1.15,2013-03-16 21:25:00,
2013-03-16 16:35:00,82.1,58.0,29.66,South,188,13.0,14.0,44,0.00,,,0.00,Wunderground v.1.15,2013-03-16 21:35:00,
2013-03-16 16:40:00,81.9,59.1,29.67,South,175,15.0,15.0,46,0.00,,,0.00,Wunderground v.1.15,2013-03-16 21:40:00,
2013-03-16 16:45:00,81.4,59.2,29.67,South,178,15.0,18.0,47,0.00,,,0.00,Wunderground v.1.15,2013-03-16 21:45:00,
2013-03-16 16:50:00,81.9,59.7,29.66,SSE,157,14.0,18.0,47,0.00,,,0.00,Wunderground v.1.15,2013-03-16 21:50:00,
2013-03-16 17:00:00,81.3,59.1,29.66,SSE,159,17.0,17.0,47,0.00,,,0.00,Wunderground v.1.15,2013-03-16 22:00:00,
2013-03-16 17:10:00,81.3,58.5,29.66,South,171,15.0,16.0,46,0.00,,,0.00,Wunderground v.1.15,2013-03-16 22:10:00,
2013-03-16 17:15:00,81.3,57.9,29.66,SE,146,16.0,16.0,45,0.00,,,0.00,Wunderground v.1.15,2013-03-16 22:15:00,
2013-03-16 17:20:00,81.3,57.9,29.66,SSE,155,15.0,22.0,45,0.00,,,0.00,Wunderground v.1.15,2013-03-16 22:20:00,
2013-03-16 17:25:00,81.4,58.0,29.66,SSW,196,14.0,25.0,45,0.00,,,0.00,Wunderground v.1.15,2013-03-16 22:25:00,
2013-03-16 17:35:00,81.7,57.7,29.66,South,174,12.0,19.0,44,0.00,,,0.00,Wunderground v.1.15,2013-03-16 22:35:00,
2013-03-16 17:40:00,81.8,57.8,29.65,SSW,195,13.0,15.0,44,0.00,,,0.00,Wunderground v.1.15,2013-03-16 22:40:00,
2013-03-16 17:45:00,81.6,57.6,29.65,South,172,13.0,17.0,44,0.00,,,0.00,Wunderground v.1.15,2013-03-16 22:45:00,
2013-03-16 17:50:00,81.1,57.1,29.65,South,169,14.0,18.0,44,0.00,,,0.00,Wunderground v.1.15,2013-03-16 22:50:00,
2013-03-16 18:00:00,80.5,56.6,29.65,South,188,15.0,15.0,44,0.00,,,0.00,Wunderground v.1.15,2013-03-16 23:00:00,
2013-03-16 18:10:00,79.9,56.7,29.65,South,188,14.0,14.0,45,0.00,,,0.00,Wunderground v.1.15,2013-03-16 23:10:00,
2013-03-16 18:15:00,79.7,56.5,29.65,SSE,161,13.0,14.0,45,0.00,,,0.00,Wunderground v.1.15,2013-03-16 23:15:00,
2013-03-16 18:20:00,79.5,56.3,29.65,SSE,168,12.0,12.0,45,0.00,,,0.00,Wunderground v.1.15,2013-03-16 23:20:00,
2013-03-16 18:25:00,79.5,56.3,29.65,SSW,202,11.0,12.0,45,0.00,,,0.00,Wunderground v.1.15,2013-03-16 23:25:00,
2013-03-16 18:30:00,79.6,55.8,29.65,South,181,12.0,12.0,44,0.00,,,0.00,Wunderground v.1.15,2013-03-16 23:30:00,
2013-03-16 18:35:00,79.5,56.3,29.65,SSW,199,12.0,12.0,45,0.00,,,0.00,Wunderground v.1.15,2013-03-16 23:35:00,
2013-03-16 18:45:00,79.0,55.8,29.66,South,181,10.0,12.0,45,0.00,,,0.00,Wunderground v.1.15,2013-03-16 23:45:00,
2013-03-16 18:50:00,78.8,55.7,29.66,South,188,10.0,10.0,45,0.00,,,0.00,Wunderground v.1.15,2013-03-16 23:50:00,
2013-03-16 18:55:00,78.5,54.8,29.65,SSW,192,9.0,13.0,44,0.00,,,0.00,Wunderground v.1.15,2013-03-16 23:55:00,
2013-03-16 19:00:00,78.4,54.7,29.65,SSW,196,10.0,10.0,44,0.00,,,0.00,Wunderground v.1.15,2013-03-17 00:00:00,
2013-03-16 19:10:00,78.1,54.4,29.65,South,173,9.0,9.0,44,0.00,,,0.00,Wunderground v.1.15,2013-03-17 00:10:00,
2013-03-16 19:15:00,77.9,54.8,29.65,South,190,9.0,9.0,45,0.00,,,0.00,Wunderground v.1.15,2013-03-17 00:15:00,
2013-03-16 19:25:00,77.1,55.3,29.66,SSE,165,9.0,10.0,47,0.00,,,0.00,Wunderground v.1.15,2013-03-17 00:25:00,
2013-03-16 19:30:00,76.8,55.6,29.65,South,191,9.0,11.0,48,0.00,,,0.00,Wunderground v.1.15,2013-03-17 00:30:00,
2013-03-16 19:35:00,76.6,55.4,29.65,South,182,9.0,11.0,48,0.00,,,0.00,Wunderground v.1.15,2013-03-17 00:35:00,
2013-03-16 19:40:00,76.3,55.2,29.65,SSE,164,9.0,9.0,48,0.00,,,0.00,Wunderground v.1.15,2013-03-17 00:40:00,
2013-03-16 19:45:00,76.0,54.9,29.66,SSE,153,8.0,13.0,48,0.00,,,0.00,Wunderground v.1.15,2013-03-17 00:45:00,
2013-03-16 19:55:00,75.6,55.1,29.66,SSE,162,9.0,17.0,49,0.00,,,0.00,Wunderground v.1.15,2013-03-17 00:55:00,
2013-03-16 20:00:00,75.4,55.5,29.66,SSE,158,9.0,9.0,50,0.00,,,0.00,Wunderground v.1.15,2013-03-17 01:00:00,
2013-03-16 20:10:00,74.9,55.6,29.66,SSE,148,9.0,11.0,51,0.00,,,0.00,Wunderground v.1.15,2013-03-17 01:10:00,
2013-03-16 20:15:00,74.7,55.4,29.66,SE,144,10.0,11.0,51,0.00,,,0.00,Wunderground v.1.15,2013-03-17 01:15:00,
2013-03-16 20:20:00,74.5,55.2,29.66,SSE,152,10.0,10.0,51,0.00,,,0.00,Wunderground v.1.15,2013-03-17 01:20:00,
2013-03-16 20:25:00,74.4,55.1,29.66,SSE,150,10.0,12.0,51,0.00,,,0.00,Wunderground v.1.15,2013-03-17 01:25:00,
2013-03-16 20:35:00,74.2,54.9,29.66,South,188,10.0,15.0,51,0.00,,,0.00,Wunderground v.1.15,2013-03-17 01:35:00,
2013-03-16 20:40:00,74.0,54.7,29.66,South,175,10.0,10.0,51,0.00,,,0.00,Wunderground v.1.15,2013-03-17 01:40:00,
2013-03-16 20:45:00,73.9,54.6,29.66,SSE,166,10.0,10.0,51,0.00,,,0.00,Wunderground v.1.15,2013-03-17 01:45:00,
2013-03-16 20:50:00,73.7,54.4,29.66,SE,146,10.0,15.0,51,0.00,,,0.00,Wunderground v.1.15,2013-03-17 01:50:00,
2013-03-16 21:00:00,73.4,54.2,29.66,South,173,10.0,12.0,51,0.00,,,0.00,Wunderground v.1.15,2013-03-17 02:00:00,
2013-03-16 21:10:00,73.1,53.9,29.66,SSE,154,10.0,10.0,51,0.00,,,0.00,Wunderground v.1.15,2013-03-17 02:10:00,
2013-03-16 21:15:00,73.0,54.3,29.66,SSE,159,10.0,13.0,52,0.00,,,0.00,Wunderground v.1.15,2013-03-17 02:15:00,
2013-03-16 21:20:00,72.9,54.2,29.67,South,180,10.0,10.0,52,0.00,,,0.00,Wunderground v.1.15,2013-03-17 02:20:00,
2013-03-16 21:25:00,72.8,54.1,29.67,SE,140,11.0,12.0,52,0.00,,,0.00,Wunderground v.1.15,2013-03-17 02:25:00,
2013-03-16 21:30:00,72.6,54.0,29.66,South,174,11.0,11.0,52,0.00,,,0.00,Wunderground v.1.15,2013-03-17 02:30:00,
2013-03-16 21:40:00,72.2,53.6,29.67,SSE,159,11.0,19.0,52,0.00,,,0.00,Wunderground v.1.15,2013-03-17 02:40:00,
2013-03-16 21:45:00,72.2,54.1,29.67,South,175,11.0,19.0,53,0.00,,,0.00,Wunderground v.1.15,2013-03-17 02:45:00,
2013-03-16 21:50:00,72.1,54.0,29.67,SSE,164,11.0,11.0,53,0.00,,,0.00,Wunderground v.1.15,2013-03-17 02:50:00,
2013-03-16 22:00:00,71.9,54.3,29.67,SSE,155,12.0,12.0,54,0.00,,,0.00,Wunderground v.1.15,2013-03-17 03:00:00,
2013-03-16 22:10:00,71.7,54.2,29.67,South,184,12.0,12.0,54,0.00,,,0.00,Wunderground v.1.15,2013-03-17 03:10:00,
2013-03-16 22:15:00,71.5,54.0,29.67,South,188,12.0,12.0,54,0.00,,,0.00,Wunderground v.1.15,2013-03-17 03:15:00,
2013-03-16 22:20:00,71.3,53.8,29.67,SSE,148,12.0,19.0,54,0.00,,,0.00,Wunderground v.1.15,2013-03-17 03:20:00,
2013-03-16 22:25:00,71.2,54.2,29.67,SSE,158,12.0,19.0,55,0.00,,,0.00,Wunderground v.1.15,2013-03-17 03:25:00,
2013-03-16 22:35:00,70.8,54.3,29.67,South,173,12.0,17.0,56,0.00,,,0.00,Wunderground v.1.15,2013-03-17 03:35:00,
2013-03-16 22:40:00,70.6,54.6,29.68,SSE,161,12.0,12.0,57,0.00,,,0.00,Wunderground v.1.15,2013-03-17 03:40:00,
2013-03-16 22:45:00,70.5,55.0,29.68,SSE,154,13.0,22.0,58,0.00,,,0.00,Wunderground v.1.15,2013-03-17 03:45:00,
2013-03-16 22:50:00,70.3,55.3,29.68,South,169,13.0,14.0,59,0.00,,,0.00,Wunderground v.1.15,2013-03-17 03:50:00,
2013-03-16 22:55:00,70.2,55.7,29.68,SSE,154,13.0,17.0,60,0.00,,,0.00,Wunderground v.1.15,2013-03-17 03:55:00,
2013-03-16 23:00:00,70.0,55.9,29.68,SSE,149,12.0,12.0,61,0.00,,,0.00,Wunderground v.1.15,2013-03-17 04:00:00,
2013-03-16 23:05:00,69.8,56.2,29.68,SSW,204,12.0,16.0,62,0.00,,,0.00,Wunderground v.1.15,2013-03-17 04:05:00,
2013-03-16 23:10:00,69.7,56.5,29.68,SSW,200,13.0,14.0,63,0.00,,,0.00,Wunderground v.1.15,2013-03-17 04:10:00,
2013-03-16 23:15:00,69.5,56.8,29.68,SSW,203,13.0,14.0,64,0.00,,,0.00,Wunderground v.1.15,2013-03-17 04:15:00,
2013-03-16 23:20:00,69.4,56.7,29.68,South,189,13.0,19.0,64,0.00,,,0.00,Wunderground v.1.15,2013-03-17 04:20:00,
2013-03-16 23:25:00,69.3,57.0,29.68,SSE,163,14.0,19.0,65,0.00,,,0.00,Wunderground v.1.15,2013-03-17 04:25:00,
2013-03-16 23:30:00,69.1,57.3,29.68,South,169,12.0,12.0,66,0.00,,,0.00,Wunderground v.1.15,2013-03-17 04:30:00,
2013-03-16 23:35:00,68.9,57.5,29.68,SSE,157,12.0,15.0,67,0.00,,,0.00,Wunderground v.1.15,2013-03-17 04:35:00,
2013-03-16 23:40:00,68.8,57.8,29.68,South,186,13.0,17.0,68,0.00,,,0.00,Wunderground v.1.15,2013-03-17 04:40:00,
2013-03-16 23:50:00,68.5,57.9,29.68,South,184,12.0,12.0,69,0.00,,,0.00,Wunderground v.1.15,2013-03-17 04:50:00,
2013-03-16 23:55:00,68.4,57.8,29.69,South,188,12.0,12.0,69,0.00,,,0.00,Wunderground v.1.15,2013-03-17 04:55:00,